Adak, AK

11:05 AM HDT on March 30, 2017 (GMT -0900)
Adak

Weather History for PADK - December, 2011

Change the Weather History Date:

Wednesday, December 14, 2011

  Actual Average Record
Temperature  
Mean Temperature 30 °F -  
Max Temperature 33 °F 38 °F 51 °F (1968)
Min Temperature 26 °F 29 °F 16 °F (1992)
Degree Days  
Heating Degree Days 36    
Moisture  
Dew Point 25 °F    
Average Humidity 80    
Maximum Humidity 93    
Minimum Humidity 56    
Precipitation  
Precipitation 0.00 in - - ()
Sea Level Pressure  
Sea Level Pressure 28.97 in    
Wind  
Wind Speed 15 mph (West)    
Max Wind Speed 32 mph    
Max Gust Speed 40 mph    
Visibility 8 miles    
Events      
Averages and records for this station are not official NWS values.
T = Trace of Precipitation, MM = Missing Value Source: NWS Daily Summary

Daily Weather History Graph

Daily Weather History Graph

Search for Another Location

Airport or City:

Trip Planner

Search our weather history database for the weather conditions in past years. The results will help you decide how hot, cold, wet, or windy it might be!

Date:

Astronomy

Dec. 14, 2011 Rise Set
Actual Time 9:46 AM HST 5:35 PM HST
Civil Twilight 9:06 AM HST 6:16 PM HST
Nautical Twilight 8:22 AM HST 6:59 PM HST
Astronomical Twilight 7:41 AM HST 7:40 PM HST
Moon 10:38 PM HST (12/14) 12:16 PM HST (12/14)
Length of Visible Light 9h 10m
Length of Day
7h 48m
Waning Gibbous, 82% of the Moon is Illuminated
Dec 14
Waning Gibbous
Dec 17
Last Quarter
Dec 24
New
Dec 31
First Quarter
Jan 8
Full

Hourly Weather History & Observations

Time (HST) Temp. Windchill Dew Point Humidity Pressure Visibility Wind Dir Wind Speed Gust Speed Precip Events Conditions
12:16 AM 30.2 °F 20.8 °F 26.6 °F 86% 28.98 in 5.0 mi WSW 11.5 mph - N/A   Overcast
12:36 AM 28.4 °F 17.0 °F 21.2 °F 74% 28.98 in 10.0 mi WSW 15.0 mph 18.4 mph N/A   Scattered Clouds
12:56 AM 26.6 °F 18.2 °F 21.2 °F 80% 28.98 in 10.0 mi SW 8.1 mph - N/A   Clear
1:16 AM 28.4 °F 19.1 °F 24.8 °F 86% 28.98 in 10.0 mi SW 10.4 mph - N/A   Partly Cloudy
1:36 AM 30.2 °F 20.2 °F 26.6 °F 86% 28.98 in 10.0 mi West 12.7 mph - N/A   Mostly Cloudy
1:56 AM 30.2 °F 21.3 °F 24.8 °F 80% 28.98 in 10.0 mi West 10.4 mph - N/A   Scattered Clouds
2:16 AM 28.4 °F 14.1 °F 26.6 °F 93% 28.98 in 10.0 mi West 24.2 mph 31.1 mph N/A   Scattered Clouds
2:36 AM 28.4 °F 17.0 °F 24.8 °F 86% 28.97 in 10.0 mi West 15.0 mph - N/A   Partly Cloudy
2:56 AM 30.2 °F 20.2 °F 24.8 °F 80% 28.97 in 10.0 mi WSW 12.7 mph - N/A   Partly Cloudy
3:16 AM 28.4 °F 18.0 °F 24.8 °F 86% 28.98 in 10.0 mi WSW 12.7 mph - N/A   Scattered Clouds
3:36 AM 28.4 °F 18.5 °F 23.0 °F 80% 28.98 in 10.0 mi WSW 11.5 mph - N/A   Clear
3:56 AM 28.4 °F 19.7 °F 24.8 °F 86% 28.98 in 10.0 mi WSW 9.2 mph - N/A   Scattered Clouds
4:16 AM 28.4 °F - 21.2 °F 74% 28.99 in 10.0 mi Calm Calm - N/A   Partly Cloudy
4:36 AM 28.4 °F 19.1 °F 24.8 °F 86% 28.99 in 4.0 mi SW 10.4 mph - N/A   Mostly Cloudy
4:56 AM 28.4 °F 20.4 °F 24.8 °F 86% 28.99 in 10.0 mi SW 8.1 mph - N/A   Mostly Cloudy
5:16 AM 26.6 °F 21.2 °F 24.8 °F 93% 28.99 in 10.0 mi WSW 4.6 mph - N/A   Partly Cloudy
5:36 AM 28.4 °F 18.5 °F 26.6 °F 93% 28.98 in 10.0 mi WSW 11.5 mph - N/A   Mostly Cloudy
5:56 AM 28.4 °F 21.2 °F 26.6 °F 93% 28.98 in 9.0 mi WSW 6.9 mph - N/A   Mostly Cloudy
6:16 AM 30.2 °F 20.8 °F 26.6 °F 86% 28.98 in 10.0 mi West 11.5 mph - N/A   Mostly Cloudy
6:36 AM 30.2 °F 18.9 °F 23.0 °F 75% 28.98 in 10.0 mi West 16.1 mph - N/A   Scattered Clouds
6:56 AM 30.2 °F 19.8 °F 26.6 °F 86% 28.98 in 10.0 mi West 13.8 mph - N/A   Mostly Cloudy
7:16 AM 30.2 °F 23.4 °F 28.4 °F 93% 28.99 in 1.2 mi West 6.9 mph - N/A   Overcast
7:36 AM 30.2 °F 18.9 °F 28.4 °F 93% 28.99 in 3.0 mi WSW 16.1 mph - N/A   Overcast
7:56 AM 28.4 °F 18.5 °F 26.6 °F 93% 28.98 in 8.0 mi West 11.5 mph - N/A   Mostly Cloudy
8:16 AM 30.2 °F 19.3 °F 28.4 °F 93% 28.98 in 10.0 mi West 15.0 mph - N/A   Mostly Cloudy
8:36 AM 30.2 °F 21.9 °F 28.4 °F 93% 28.99 in 2.0 mi WNW 9.2 mph - N/A   Overcast
8:56 AM 30.2 °F 18.5 °F 24.8 °F 80% 28.98 in 5.0 mi WNW 17.3 mph 24.2 mph N/A   Overcast
9:16 AM 33.8 °F 22.8 °F 23.0 °F 65% 28.97 in 10.0 mi WNW 18.4 mph - N/A   Overcast
9:36 AM 33.8 °F 23.5 °F 24.8 °F 70% 28.97 in 10.0 mi WNW 16.1 mph 21.9 mph N/A   Overcast
9:56 AM 32.0 °F 20.5 °F 21.2 °F 64% 28.97 in 10.0 mi WNW 18.4 mph 23.0 mph N/A   Mostly Cloudy
10:16 AM 30.2 °F 18.1 °F 28.4 °F 93% 28.97 in 1.0 mi West 18.4 mph 26.5 mph N/A   Overcast
10:36 AM 32.0 °F 19.2 °F 28.4 °F 87% 28.97 in 1.8 mi West 23.0 mph 33.4 mph N/A   Overcast
10:56 AM 33.8 °F 23.9 °F 21.2 °F 60% 28.98 in 10.0 mi WNW 15.0 mph 21.9 mph N/A   Overcast
11:16 AM 33.8 °F 23.5 °F 24.8 °F 70% 28.98 in 10.0 mi West 16.1 mph 27.6 mph N/A   Overcast
11:36 AM 32.0 °F 21.2 °F 26.6 °F 80% 28.98 in 2.0 mi NW 16.1 mph 32.2 mph N/A   Overcast
11:56 AM 32.0 °F 18.6 °F 24.8 °F 75% 28.98 in 3.0 mi WNW 25.3 mph 31.1 mph N/A   Mostly Cloudy
12:16 PM 33.8 °F 21.6 °F 23.0 °F 65% 28.97 in 8.0 mi WNW 23.0 mph 32.2 mph N/A   Overcast
12:36 PM 33.8 °F 23.2 °F 21.2 °F 60% 28.97 in 10.0 mi WNW 17.3 mph 25.3 mph N/A   Overcast
12:56 PM 33.8 °F 22.5 °F 24.8 °F 70% 28.97 in 10.0 mi WNW 19.6 mph - N/A   Overcast
1:16 PM 32.0 °F 18.9 °F 26.6 °F 80% 28.97 in 1.8 mi West 24.2 mph 34.5 mph N/A   Overcast
1:36 PM 32.0 °F 17.9 °F 28.4 °F 87% 28.96 in 3.0 mi WNW 28.8 mph 38.0 mph N/A   Mostly Cloudy
1:56 PM 33.8 °F 19.6 °F 26.6 °F 75% 28.94 in 1.8 mi WNW 32.2 mph 39.1 mph N/A   Overcast
2:16 PM 32.0 °F 18.1 °F 24.8 °F 75% 28.95 in 5.0 mi WNW 27.6 mph 35.7 mph N/A   Overcast
2:36 PM 30.2 °F 15.7 °F 26.6 °F 86% 28.95 in 0.8 mi WNW 27.6 mph 33.4 mph N/A   Overcast
2:56 PM 33.8 °F 21.0 °F 24.8 °F 70% 28.94 in 10.0 mi WNW 25.3 mph 31.1 mph N/A   Overcast
3:16 PM 33.8 °F 20.3 °F 24.8 °F 70% 28.94 in 10.0 mi West 28.8 mph 36.8 mph N/A   Overcast
4:16 PM 33.8 °F 20.1 °F 19.4 °F 56% 28.92 in 10.0 mi WNW 29.9 mph 36.8 mph N/A   Unknown
4:36 PM 32.0 °F 17.2 °F 23.0 °F 69% 28.93 in 5.0 mi WNW 32.2 mph 40.3 mph N/A   Overcast
4:56 PM 32.0 °F 19.8 °F 23.0 °F 69% 28.94 in 9.0 mi WNW 20.7 mph 39.1 mph N/A   Overcast
5:16 PM 33.8 °F 20.5 °F 23.0 °F 65% 28.93 in 10.0 mi WNW 27.6 mph 35.7 mph N/A   Overcast
5:36 PM 33.8 °F 20.8 °F 21.2 °F 60% 28.93 in 9.0 mi WNW 26.5 mph 35.7 mph N/A   Overcast
5:56 PM 32.0 °F 16.7 °F 24.8 °F 75% 28.93 in 1.5 mi WNW 34.5 mph 42.6 mph N/A   Overcast
6:16 PM 32.0 °F 17.9 °F 26.6 °F 80% 28.93 in 2.0 mi WNW 28.8 mph 39.1 mph N/A   Overcast
6:36 PM 32.0 °F 17.9 °F 26.6 °F 80% 28.93 in 2.0 mi WNW 28.8 mph 35.7 mph N/A   Overcast
6:56 PM 32.0 °F 17.4 °F 24.8 °F 75% 28.93 in 4.0 mi WNW 31.1 mph 40.3 mph N/A   Overcast
7:16 PM 32.0 °F 17.4 °F 26.6 °F 80% 28.93 in 5.0 mi West 31.1 mph 44.9 mph N/A   Overcast
7:36 PM 33.8 °F 20.8 °F 24.8 °F 70% 28.93 in 10.0 mi WNW 26.5 mph 41.4 mph N/A   Overcast
7:56 PM 33.8 °F 19.9 °F 21.2 °F 60% 28.93 in 10.0 mi WNW 31.1 mph 40.3 mph N/A   Overcast
8:16 PM 33.8 °F 20.3 °F 24.8 °F 70% 28.93 in 10.0 mi West 28.8 mph 39.1 mph N/A   Overcast
8:36 PM 32.0 °F 17.2 °F 24.8 °F 75% 28.93 in 8.0 mi West 32.2 mph 43.7 mph N/A   Mostly Cloudy
8:56 PM 32.0 °F 17.2 °F 24.8 °F 75% 28.93 in 5.0 mi WNW 32.2 mph 41.4 mph N/A   Overcast
9:16 PM 33.8 °F 19.2 °F 24.8 °F 70% 28.92 in 8.0 mi WNW 34.5 mph 43.7 mph N/A   Overcast
9:36 PM 33.8 °F 18.8 °F 24.8 °F 70% 28.93 in 9.0 mi West 36.8 mph 43.7 mph N/A   Overcast
9:56 PM 33.8 °F 19.0 °F 24.8 °F 70% 28.92 in 8.0 mi West 35.7 mph 44.9 mph N/A   Overcast
10:16 PM 33.8 °F 19.0 °F 23.0 °F 65% 28.92 in 10.0 mi West 35.7 mph 41.4 mph N/A   Overcast
10:36 PM 33.8 °F 19.0 °F 23.0 °F 65% 28.92 in 9.0 mi WNW 35.7 mph 44.9 mph N/A   Overcast
10:56 PM 33.8 °F 19.6 °F 24.8 °F 70% 28.93 in 10.0 mi West 32.2 mph 42.6 mph N/A   Overcast
11:16 PM 33.8 °F 19.0 °F 24.8 °F 70% 28.93 in 10.0 mi West 35.7 mph 46.0 mph N/A   Overcast
11:36 PM 33.8 °F 19.6 °F 24.8 °F 70% 28.93 in 10.0 mi West 32.2 mph 41.4 mph N/A   Overcast
11:56 PM 32.0 °F 17.6 °F 26.6 °F 80% 28.94 in 1.8 mi West 29.9 mph 50.6 mph N/A   Overcast